This is the latest recevied weather packets stored in our database for station/object W4CKA. If no packets are shown the sender has not sent any weather packets the latest 10 day(s).
| Time | Temp. | Humidity | Pressure | Rain* | Wind** | Luminosity | Snow |
|---|---|---|---|---|---|---|---|
| 1787974419 | 20.56° C | 98% | 1061.7 hPa | 0 mm | - | 0 W/m² | - |
| 1787973819 | 21.11° C | 98% | 1061.5 hPa | 0 mm | - | 0 W/m² | - |
| 1787973215 | 21.11° C | 97% | 1061.7 hPa | 0 mm | - | 0 W/m² | - |
| 1787972616 | 21.11° C | 97% | 1061.7 hPa | 0 mm | - | 0 W/m² | - |
| 1787972014 | 21.67° C | 96% | 1061.5 hPa | 0 mm | - | 0 W/m² | - |
| 1787971412 | 21.67° C | 96% | 1061.6 hPa | 0 mm | - | 0 W/m² | - |
| 1787970812 | 21.67° C | 96% | 1061.5 hPa | 0 mm | - | 0 W/m² | - |
| 1787970212 | 21.67° C | 96% | 1061.3 hPa | 0 mm | - | 0 W/m² | - |
| 1787969611 | 21.67° C | 95% | 1061.2 hPa | 0 mm | - | 0 W/m² | - |
| 1787969010 | 22.22° C | 95% | 1061 hPa | 0 mm | - | 0 W/m² | - |
| 1787968411 | 22.22° C | 95% | 1060.7 hPa | 0 mm | - | 0 W/m² | - |
| 1787967810 | 22.22° C | 95% | 1060.6 hPa | 0 mm | - | 0 W/m² | - |
| 1787967209 | 22.22° C | 92% | 1060.7 hPa | 0 mm | - | 0 W/m² | - |
| 1787966607 | 22.22° C | 93% | 1060.5 hPa | 0 mm | - | 0 W/m² | - |
| 1787966007 | 22.22° C | 93% | 1060.4 hPa | 0 mm | - | 0 W/m² | - |
| 1787965402 | 22.78° C | 92% | 1060.2 hPa | 0 mm | - | 0 W/m² | - |
| 1787964803 | 22.22° C | 92% | 1060.2 hPa | 0 mm | - | 0 W/m² | - |
| 1787964199 | 22.78° C | 92% | 1060.1 hPa | 0 mm | - | 0 W/m² | - |
| 1787963598 | 22.78° C | 89% | 1060.1 hPa | 0 mm | - | 0 W/m² | - |
| 1787962993 | 23.33° C | 89% | 1059.9 hPa | 0 mm | - | 0 W/m² | - |
| 1787962393 | 23.33° C | 86% | 1059.9 hPa | 0 mm | - | 0 W/m² | - |
| 1787961792 | 23.89° C | 84% | 1059.7 hPa | 0 mm | - | 0 W/m² | - |
| 1787961190 | 24.44° C | 84% | 1059.5 hPa | 0 mm | - | 5 W/m² | - |
| 1787960586 | 25° C | 81% | 1059.6 hPa | 0 mm | - | 11 W/m² | - |
| 1787959984 | 26.11° C | 81% | 1059.7 hPa | 0 mm | - | 18 W/m² | - |
* Rain latest hour (hover to see other rain measurements)
** Current wind speed in m/s (hover to see current wind gust speed)